Farmville, VA

4:57 PM EDT on September 22, 2017 (GMT -0400)
Farmville Regional

Weather History for KFVX - January, 2012

Change the Weather History Date:

Tuesday, January 17, 2012

  Actual Average Record
Temperature  
Mean Temperature 54 °F -  
Max Temperature 64 °F 46 °F 80 °F (1943)
Min Temperature 44 °F 22 °F -2 °F (1977)
Degree Days  
Heating Degree Days 11    
Growing Degree Days 4 (Base 50)    
Moisture  
Dew Point 40 °F    
Average Humidity 58    
Maximum Humidity 82    
Minimum Humidity 45    
Precipitation  
Precipitation 0.00 in - - ()
Sea Level Pressure  
Sea Level Pressure 29.98 in    
Wind  
Wind Speed 12 mph (SSW)    
Max Wind Speed 22 mph    
Max Gust Speed 32 mph    
Visibility 10 miles    
Events Rain    
Averages and records for this station are not official NWS values.
T = Trace of Precipitation, MM = Missing Value Source: NWS Daily Summary

Daily Weather History Graph

Daily Weather History Graph

Search for Another Location

Airport or City:

Trip Planner

Search our weather history database for the weather conditions in past years. The results will help you decide how hot, cold, wet, or windy it might be!

Date:

Astronomy

Jan. 17, 2012 Rise Set
Actual Time 7:26 AM EST 5:21 PM EST
Civil Twilight 6:58 AM EST 5:49 PM EST
Nautical Twilight 6:26 AM EST 6:21 PM EST
Astronomical Twilight 5:54 AM EST 6:53 PM EST
Moon 1:44 AM EST (1/17) 12:12 PM EST (1/17)
Length of Visible Light 10h 51m
Length of Day
9h 54m
Waning Crescent, 35% of the Moon is Illuminated
Jan 17
Waning Crescent
Jan 23
New
Jan 30
First Quarter
Feb 7
Full
Feb 14
Last Quarter

Hourly Weather History & Observations

Time (EST) Temp. Windchill Dew Point Humidity Pressure Visibility Wind Dir Wind Speed Gust Speed Precip Events Conditions
12:15 AM 44.6 °F 39.2 °F 28.4 °F 53% 30.21 in 10.0 mi SSW 10.4 mph - N/A   Mostly Cloudy
12:35 AM 44.6 °F 38.8 °F 28.4 °F 53% 30.21 in 10.0 mi SSW 11.5 mph 19.6 mph N/A   Mostly Cloudy
12:55 AM 44.6 °F 38.4 °F 28.4 °F 53% 30.20 in 10.0 mi SSW 12.7 mph 18.4 mph N/A   Scattered Clouds
1:15 AM 46.4 °F 40.1 °F 28.4 °F 50% 30.19 in 10.0 mi SSW 15.0 mph 19.6 mph N/A   Mostly Cloudy
1:35 AM 46.4 °F 41.1 °F 28.4 °F 50% 30.19 in 10.0 mi SSW 11.5 mph 18.4 mph N/A   Overcast
1:55 AM 46.4 °F 40.4 °F 30.2 °F 53% 30.19 in 10.0 mi SW 13.8 mph 20.7 mph N/A   Overcast
2:15 AM 46.4 °F 41.5 °F 30.2 °F 53% 30.18 in 10.0 mi SSW 10.4 mph 20.7 mph N/A   Mostly Cloudy
2:35 AM 46.4 °F 40.7 °F 30.2 °F 53% 30.18 in 10.0 mi SSW 12.7 mph 23.0 mph N/A   Mostly Cloudy
2:55 AM 46.4 °F 40.7 °F 30.2 °F 53% 30.17 in 10.0 mi SSW 12.7 mph - N/A   Overcast
3:15 AM 48.2 °F - 30.2 °F 50% 30.15 in 10.0 mi SSW 11.5 mph 20.7 mph N/A   Scattered Clouds
3:35 AM 46.4 °F 40.7 °F 30.2 °F 53% 30.14 in 10.0 mi SSW 12.7 mph 20.7 mph N/A   Clear
3:55 AM 48.2 °F - 30.2 °F 50% 30.13 in 10.0 mi SSW 13.8 mph 23.0 mph N/A   Mostly Cloudy
4:35 AM 48.2 °F - 30.2 °F 50% 30.12 in 10.0 mi SSW 10.4 mph 18.4 mph N/A   Scattered Clouds
5:15 AM 48.2 °F - 32.0 °F 54% 30.11 in 10.0 mi SSW 10.4 mph - N/A   Mostly Cloudy
5:35 AM 48.2 °F - 33.8 °F 58% 30.10 in 10.0 mi SSW 11.5 mph 18.4 mph N/A   Overcast
5:55 AM 48.2 °F - 33.8 °F 58% 30.09 in 10.0 mi SSW 10.4 mph 18.4 mph N/A   Mostly Cloudy
6:15 AM 48.2 °F - 33.8 °F 58% 30.09 in 10.0 mi SSW 12.7 mph 19.6 mph N/A   Scattered Clouds
6:35 AM 48.2 °F - 35.6 °F 62% 30.09 in 10.0 mi SSW 12.7 mph 23.0 mph N/A   Clear
7:15 AM 50.0 °F - 37.4 °F 62% 30.07 in 10.0 mi SSW 9.2 mph 19.6 mph N/A   Clear
7:35 AM 50.0 °F - 37.4 °F 62% 30.06 in 10.0 mi SSW 11.5 mph 20.7 mph N/A   Clear
7:55 AM 50.0 °F - 37.4 °F 62% 30.06 in 10.0 mi SW 10.4 mph 18.4 mph N/A   Clear
8:15 AM 50.0 °F - 37.4 °F 62% 30.07 in 10.0 mi SSW 10.4 mph 18.4 mph N/A   Scattered Clouds
8:35 AM 51.8 °F - 39.2 °F 62% 30.06 in 10.0 mi SSW 12.7 mph 18.4 mph N/A   Overcast
9:15 AM 51.8 °F - 39.2 °F 62% 30.04 in 10.0 mi SSW 15.0 mph 19.6 mph N/A   Scattered Clouds
9:35 AM 53.6 °F - 39.2 °F 58% 30.03 in 10.0 mi SSW 16.1 mph 23.0 mph N/A   Scattered Clouds
9:55 AM 55.4 °F - 39.2 °F 54% 30.03 in 10.0 mi SSW 16.1 mph 24.2 mph N/A   Scattered Clouds
10:15 AM 55.4 °F - 39.2 °F 54% 30.02 in 10.0 mi SSW 17.3 mph 26.5 mph N/A   Clear
10:35 AM 59.0 °F - 39.2 °F 48% 30.02 in 10.0 mi SW 17.3 mph 29.9 mph N/A   Clear
10:55 AM 60.8 °F - 39.2 °F 45% 30.01 in 10.0 mi SSW 13.8 mph 26.5 mph N/A   Clear
11:15 AM 59.0 °F - 39.2 °F 48% 29.99 in 10.0 mi SW 20.7 mph 29.9 mph N/A   Scattered Clouds
11:35 AM 57.2 °F - 39.2 °F 51% 29.99 in 10.0 mi SSW 13.8 mph 29.9 mph N/A   Scattered Clouds
11:55 AM 57.2 °F - 41.0 °F 55% 29.98 in 10.0 mi SSW 13.8 mph 27.6 mph N/A Rain Light Rain
12:15 PM 57.2 °F - 41.0 °F 55% 29.96 in 10.0 mi SSW 16.1 mph 25.3 mph N/A   Scattered Clouds
12:35 PM 57.2 °F - 42.8 °F 59% 29.95 in 10.0 mi SSW 13.8 mph 23.0 mph N/A   Scattered Clouds
1:15 PM 57.2 °F - 42.8 °F 59% 29.91 in 10.0 mi SSW 15.0 mph 25.3 mph N/A Rain Rain
1:35 PM 59.0 °F - 44.6 °F 59% 29.89 in 10.0 mi SSW 9.2 mph 17.3 mph N/A   Mostly Cloudy
1:55 PM 60.8 °F - 44.6 °F 55% 29.87 in 10.0 mi SSW 15.0 mph 20.7 mph N/A   Scattered Clouds
2:55 PM 64.4 °F - 44.6 °F 49% 29.84 in 10.0 mi SSW 18.4 mph 29.9 mph N/A   Scattered Clouds
3:15 PM 64.4 °F - 44.6 °F 49% 29.84 in 10.0 mi SSW 21.9 mph 32.2 mph N/A   Scattered Clouds
3:35 PM 64.4 °F - 44.6 °F 49% 29.84 in 10.0 mi SW 19.6 mph 31.1 mph N/A   Mostly Cloudy
3:55 PM 64.4 °F - 44.6 °F 49% 29.84 in 10.0 mi SSW 16.1 mph 24.2 mph N/A   Mostly Cloudy
4:15 PM 64.4 °F - 44.6 °F 49% 29.83 in 10.0 mi SSW 15.0 mph 26.5 mph N/A   Scattered Clouds
4:35 PM 62.6 °F - 46.4 °F 55% 29.84 in 10.0 mi SSW 12.7 mph 31.1 mph N/A   Unknown
4:55 PM 62.6 °F - 46.4 °F 55% 29.83 in 10.0 mi SW 13.8 mph 26.5 mph N/A   Scattered Clouds
5:15 PM 62.6 °F - 46.4 °F 55% 29.83 in 10.0 mi SW 13.8 mph 25.3 mph N/A   Scattered Clouds
5:35 PM 62.6 °F - 46.4 °F 55% 29.83 in 10.0 mi SSW 9.2 mph 19.6 mph N/A   Overcast
5:55 PM 62.6 °F - 46.4 °F 55% 29.83 in 10.0 mi SSW 13.8 mph 21.9 mph N/A   Overcast
6:15 PM 62.6 °F - 46.4 °F 55% 29.83 in 10.0 mi SSW 11.5 mph - N/A   Unknown
6:35 PM 62.6 °F - 48.2 °F 59% 29.86 in 10.0 mi WSW 5.8 mph - N/A Rain Light Rain
6:55 PM 60.8 °F - 50.0 °F 68% 29.84 in 10.0 mi SW 5.8 mph - N/A Rain Rain
7:15 PM 59.0 °F - 51.8 °F 77% 29.84 in 10.0 mi SW 3.5 mph - N/A   Overcast
7:35 PM 57.2 °F - 51.8 °F 82% 29.85 in 10.0 mi WNW 3.5 mph - N/A   Overcast
7:55 PM 59.0 °F - 51.8 °F 77% 29.85 in 10.0 mi SSW 3.5 mph - N/A   Overcast
8:15 PM 57.2 °F - 51.8 °F 82% 29.83 in 10.0 mi SSW 4.6 mph - N/A   Overcast
8:35 PM 59.0 °F - 51.8 °F 77% 29.82 in 10.0 mi SSW 6.9 mph - N/A   Overcast
8:55 PM 60.8 °F - 50.0 °F 68% 29.81 in 10.0 mi SSW 12.7 mph 19.6 mph N/A   Overcast
9:15 PM 60.8 °F - 50.0 °F 68% 29.79 in 10.0 mi SSW 15.0 mph 20.7 mph N/A   Mostly Cloudy
9:35 PM 60.8 °F - 51.8 °F 72% 29.80 in 10.0 mi SSW 10.4 mph 18.4 mph N/A   Mostly Cloudy
9:55 PM 60.8 °F - 51.8 °F 72% 29.80 in 10.0 mi SSW 15.0 mph 20.7 mph N/A   Scattered Clouds
10:15 PM 60.8 °F - 51.8 °F 72% 29.79 in 10.0 mi SW 16.1 mph 21.9 mph N/A   Clear
10:35 PM 60.8 °F - 51.8 °F 72% 29.79 in 10.0 mi SSW 13.8 mph 21.9 mph N/A   Scattered Clouds
10:55 PM 59.0 °F - 51.8 °F 77% 29.78 in 10.0 mi SSW 9.2 mph 23.0 mph N/A   Overcast
11:15 PM 59.0 °F - 51.8 °F 77% 29.78 in 10.0 mi SSW 9.2 mph 16.1 mph N/A   Overcast
11:35 PM 60.8 °F - 51.8 °F 72% 29.77 in 10.0 mi SW 11.5 mph - N/A   Overcast
11:55 PM 59.0 °F - 51.8 °F 77% 29.77 in 7.0 mi SW 8.1 mph 18.4 mph N/A Rain Light Rain